Flagstaff, Arizona, United States (86001)
Lat: 35.20N, Lon: 111.65W
Wx Zone: AZZ015
Local Info
Past Weather Observations for Sunday, October 19, 2014

NOTE: This archive is for the closest National Weather Service station to Flagstaff. Information may differ from the station used for current weather conditions.

Click here for Long-term Archive

Time Weather Temperature Dewpoint Humidity Pressure Winds Precip Visibility
23:57
Clear
37°F / 3°C 34°F / 1°C 87% 30.18 in
(1022 mb)
Calm - 10SM
22:57
Clear
39°F / 4°C 36°F / 2°C 87% 30.18 in
(1022 mb)
Calm - 10SM
21:57
Clear
39°F / 4°C 36°F / 2°C 87% 30.18 in
(1022 mb)
Calm - 10SM
20:57
Clear
43°F / 6°C 37°F / 3°C 81% 30.18 in
(1022 mb)
Calm - 10SM
19:57
Clear
45°F / 7°C 37°F / 3°C 76% 30.18 in
(1022 mb)
Calm - 10SM
19:16
Clear
Hazy
48°F / 9°C 39°F / 4°C 71% 30.18 in
(1022 mb)
Calm - 3SM
19:09
Clear
Hazy
46°F / 8°C 39°F / 4°C 76% 30.18 in
(1022 mb)
SW 3.5 mph
(SW 6 kph)
- 1 3/4SM
18:57
Clear
48°F / 9°C 39°F / 4°C 71% 30.15 in
(1021 mb)
Calm - 8SM
17:57
Partly Cloudy
54°F / 12°C 39°F / 4°C 58% 30.15 in
(1021 mb)
Calm - 10SM
16:57
Overcast
63°F / 17°C 36°F / 2°C 37% 30.12 in
(1020 mb)
NE 8.1 mph
(NE 13 kph)
- 10SM
15:57
Partly Cloudy
63°F / 17°C 39°F / 4°C 42% 30.12 in
(1020 mb)
Variable 3.5 mph
(Variable 6 kph)
- 10SM
14:57
Mostly Cloudy
63°F / 17°C 36°F / 2°C 37% 30.12 in
(1020 mb)
E 6.9 mph
(E 11 kph)
- 10SM
13:57
Partly Cloudy
64°F / 18°C 36°F / 2°C 34% 30.15 in
(1021 mb)
Variable 5.8 mph
(Variable 9 kph)
- 10SM
12:57
Clear
64°F / 18°C 36°F / 2°C 34% 30.15 in
(1021 mb)
Variable 6.9 mph
(Variable 11 kph)
- 10SM
11:57
Partly Cloudy
63°F / 17°C 37°F / 3°C 39% 30.18 in
(1022 mb)
SSE 5.8 mph
(SSE 9 kph)
0.00 in
(0.00 mm)
10SM
10:57
Overcast
55°F / 13°C 41°F / 5°C 59% 30.21 in
(1023 mb)
SSW 3.5 mph
(SSW 6 kph)
0.01 in
(0.25 mm)
10SM
09:57
Overcast
Light Rain
52°F / 11°C 41°F / 5°C 67% 30.24 in
(1024 mb)
SW 9.2 mph
(SW 15 kph)
0.00 in
(0.00 mm)
9SM
08:57
Mostly Cloudy
52°F / 11°C 39°F / 4°C 62% 30.21 in
(1023 mb)
Calm - 10SM
07:57
Partly Cloudy
54°F / 12°C 37°F / 3°C 54% 30.21 in
(1023 mb)
S 6.9 mph
(S 11 kph)
- 10SM
06:57
Overcast
52°F / 11°C 37°F / 3°C 58% 30.18 in
(1022 mb)
N 5.8 mph
(N 9 kph)
0.00 in
(0.00 mm)
10SM
05:57
Overcast
Light Rain
52°F / 11°C 37°F / 3°C 58% 30.18 in
(1022 mb)
ENE 11.5 mph
(ENE 19 kph)
0.00 in
(0.00 mm)
10SM
04:57
Overcast
48°F / 9°C 39°F / 4°C 71% 30.15 in
(1021 mb)
E 9.2 mph
(E 15 kph)
0.00 in
(0.00 mm)
10SM
03:57
Overcast
43°F / 6°C 36°F / 2°C 76% 30.15 in
(1021 mb)
Calm - 10SM
02:57
Partly Cloudy
39°F / 4°C 36°F / 2°C 87% 30.12 in
(1020 mb)
Calm - 10SM
01:57
Partly Cloudy
37°F / 3°C 34°F / 1°C 87% 30.15 in
(1021 mb)
Calm - 10SM
00:57
Partly Cloudy
39°F / 4°C 36°F / 2°C 87% 30.15 in
(1021 mb)
Calm - 10SM
Time Weather Temperature Dewpoint Humidity Pressure Winds Precip Visibility


Weather for websites

WeatherForYou.com, LLC is not responsible for any damages or problems caused by this service. Current weather conditions are obtained from the closest station including government and personal stations which may have varying degrees of accuracy. Weather forecasts are derived from the NOAA NDFD. Like all things, this site belongs to Jesus Christ... He just trusts me to maintain it. If you have any questions or comments email webmaster@weatherforyou.com

Copyright © 2014, WeatherForYou.com LLC. All rights reserved.